World > North America > United States > Pennsylvania > Concord  

Concord, PA Hourly Weather Updates

Feedback E-mail the Weather

Quick Clicks

Concord, PA Weather Maps

°F °C°F °C
Concord Weather Map
UTC Time: 6/15/2024, 19:39
Your Time:

Concord, PA Regional Weather

Expires:202406152000;;072022
ASUS41 KCTP 151910
RWRCTP

REGIONAL WEATHER ROUNDUP
NATIONAL WEATHER SERVICE STATE COLLEGE PA
300 PM EDT SAT JUN 15 2024

Note: "fair" indicates few or no clouds below 12,000 feet with no 
significant weather and/or obstructions to visibility.

* = STATION THAT DOES NOT REPORT PRECIPITATION /E.G. RAIN...SNOW...ETC/
    THUNDER OR FOG.


PAZ004>006-010>012-017>019-024>028-033>037-041-042-045-046-049>053-152000-
CENTRAL PENNSYLVANIA
  
CITY           SKY/WX    TMP DP  RH WIND       PRES   REMARKS
BRADFORD       PTSUNNY   74  51  44 NW8G20    30.16S                  
ST MARYS       CLOUDY    72  45  37 NW3       30.18S                  
DUBOIS         SUNNY     75  48  38 VRB7      30.15R                  
CLEARFIELD       N/A     73  48  41 NW6       30.14R                  
JOHNSTOWN      MOSUNNY   70  49  47 NW12      30.16R                  
SOMERSET       SUNNY     68  48  49 NW12G17   30.17R                  
ALTOONA        MOSUNNY   78  49  35 NW8       30.12S                  
STATE COLLEGE  MOSUNNY   73  46  38 VRB3      30.11F                  
REEDSVILLE     SUNNY     77  52  41 NW10G16   30.09F                  
WELLSBORO      PTSUNNY   70  48  46 N9G20     30.13R                  
WILLIAMSPORT   MOSUNNY   80  48  32 VRB6      30.06S                  
SELINSGROVE    MOSUNNY   79  53  40 N8        30.07F                  
FT INDIANTOWN  MOSUNNY   79  48  33 NW7       30.04F                  
CAPITAL CITY   MOSUNNY   82  49  31 N10G17    30.06F                  
HARRISBURG     MOSUNNY   80  50  34 NW9G18    30.05F                  
YORK           SUNNY     81  49  32 N10       30.05F                  
$$


SKY/WX - Weather  TMP - Temperature  DP - Dew Point  RH - Humidity
WIND - Wind Direction/Speed PRES - Barometric Pressure VSB - Visibility
WCI - Wind Chill Index E13G22 Wind - East Wind 13 mph/Gusts of 22 mph

Trending Headlines

Trending Entertainment Headlines

Concord Radar Loop

Use the map search tool if you want to place a location marker on the radar map...

Concord Quick Facts

National Two Day Weather Forecast


E-mail the Concord Weather Forecast

Voice your opinion or tell us about page issues...